Regional Weather Roundup
Issued by NWS Jackson, KY

Home | Current Version | Previous Version | Text Only | Print | Product List | Glossary On
Versions: 1 2 3 4 5 6 7 8 9 10 11 12 13 14 15 16 17 18 19 20 21 22 23 24 25 26 27 28 29 30 31 32 33 34 35 36 37 38 39 40 41 42 43 44 45 46 47 48 49 50
000
ASUS43 KJKL 090010
RWRJKL

EAST KENTUCKY HOURLY WEATHER ROUNDUP
NATIONAL WEATHER SERVICE JACKSON KY
700 PM EST THU DEC 08 2016

NOTE: "FAIR" INDICATES FEW OR NO CLOUDS BELOW 12,000 FEET WITH
NO SIGNIFICANT WEATHER AND/OR OBSTRUCTIONS TO VISIBILITY.

* THESE REPORTS ARE NOT UNDER NWS QUALITY CONTROL AND MAY NOT
  REPORT WEATHER SUCH AS PRECIPITATION AND FOG.

KYZ079-080-083-085-087-088-110-112-115-119-120-090100
...EASTERN KENTUCKY...

CITY           SKY/WX    TMP DP  RH WIND       PRES   REMARKS
JACKSON        CLEAR     29  15  56 SW3       30.32R
6HR MIN TEMP:  29; 6HR MAX TEMP:  38;

LONDON         CLEAR     29  15  56 W7        30.36R WCI  22
6HR MIN TEMP:  29; 6HR MAX TEMP:  38;

SOMERSET*      CLEAR     28  14  54 NW5       30.41R WCI  23
MONTICELLO*    CLEAR     28  17  63 NW7       30.41R WCI  21
6HR MIN TEMP:  28; 6HR MAX TEMP:  37;

MIDDLESBORO*   CLEAR     32  17  53 NW8       30.36R WCI  25
6HR MIN TEMP:  32; 6HR MAX TEMP:  42;

HARLAN APT*    CLEAR     32  16  51 SW8       30.32R WCI  25
PIKE CO APT*     N/A     29  16  56 W7        30.30S WCI  22
BIG SANDY APT* CLEAR     31  16  54 NW7       30.31R WCI  24
MOREHEAD APT*  CLOUDY    30  14  51 NW6       30.36R WCI  24
ASHLAND*       CLOUDY    34  18  51 N9        30.33R WCI  26
$$

KYZ035-036-041-042-044-050-067-078-099-090100
...CENTRAL KENTUCKY...

CITY           SKY/WX    TMP DP  RH WIND       PRES   REMARKS
MT STERLING*   CLEAR     28  18  64 NW5       30.37R WCI  23
FLEMING/MASON* PTCLDY    27  17  65 NW8       30.37R WCI  19
DANVILLE*      CLEAR     28  16  59 W7        30.39R WCI  21
LEXINGTON      CLEAR     28  14  55 NW12      30.37R WCI  18
6HR MIN TEMP:  28; 6HR MAX TEMP:  35;

FRANKFORT      CLEAR     28  14  55 NW9       30.39R WCI  19
6HR MIN TEMP:  28; 6HR MAX TEMP:  36;

LOUISVILLE     PTCLDY    28  13  53 NW15      30.44R WCI  16
6HR MIN TEMP:  28; 6HR MAX TEMP:  37;

LEBANON*         N/A     27  16  63 W6        30.41R WCI  20
GLASGOW*       CLEAR     28  18  68 W3        30.43S
BOWLING GREEN  CLEAR     30  15  53 NW5       30.46R WCI  25
6HR MIN TEMP:  28; 6HR MAX TEMP:  37;

$$

KYZ091>093-OHZ055-061-077-WVZ005-015-034-035-042-090100
...SOUTHERN OHIO/WEST VIRGINIA...

CITY           SKY/WX    TMP DP  RH WIND       PRES   REMARKS
COVINGTON      FLURRIES  24  13  62 NW13      30.39R WCI  12
COLUMBUS       FLURRIES  24  17  74 W15       30.32R WCI  11
DAYTON         FLURRIES  23  14  68 W14       30.35R WCI  11
WILMINGTON     CLOUDY    23  14  68 W14G21    30.35R WCI  11
HUNTINGTON     MOCLDY    31  13  47 W3        30.32R
CHARLESTON     PTCLDY    32  14  47 W8        30.28R WCI  25
PINEVILLE*       N/A     32  12  43 MISG      30.29R
BECKLEY        CLEAR     27  10  49 NW16G22   30.19R WCI  15
BLUEFIELD      CLEAR     26  10  50 NW9G18    30.17R WCI  17
LOGAN CO APT*    N/A     30  14  51 W8G16     30.27R WCI  23
$$

VAZ002-007-008-TNZ017-027-036-066-071-090100
...SOUTHWEST VIRGINIA/EAST TENNESSEE...

CITY           SKY/WX    TMP DP  RH WIND       PRES   REMARKS
WISE*          CLEAR     30  14  51 W8        30.24R WCI  23
ABINGDON*      CLEAR     34  11  38 NW8       30.23R WCI  28
BRISTOL        PTCLDY    34  15  46 W7        30.26R WCI  28
MORRISTOWN*    CLEAR     36  12  38 N10       30.30R WCI  28
SEVIERVILLE*   CLEAR     36  12  38 W3        30.31S
KNOXVILLE      MOCLDY    38  13  35 W10       30.32R WCI  31
OAK RIDGE      CLEAR     38  14  37 W5        30.36R WCI  34
CROSSVILLE     CLEAR     29  14  53 NW8       30.34R WCI  21
NASHVILLE      MOCLDY    33  14  45 NW9       30.46R WCI  25
$$

...KEY TO REMARKS...
VSB - VISIBILITY IN MILES
WCI - WIND CHILL INDEX
HX  - HEAT INDEX

$$



USA.gov is the U.S. government's official web portal to all federal, state and local government web resources and services.